Location: De Platvoet
(52.2667°N, 6.1667°E)
Time: 19:38:01
(UTC+00:00)

CZ-4B R/B - Pass Details

Date: 15 May 2026
Orbit: 807 x 881 km, 98.9° (Epoch: 6 June)

Event Time Altitude Azimuth Distance (km) Brightness Sun altitude
Rises 20:05:58 0° 173° (S) 3,466 5.9 -5.9°
Reaches altitude 10° 20:08:24 10° 176° (S) 2,529 5.3 -6.2°
Maximum altitude 20:13:59 63° 257° (WSW) 976 3.8 -6.8°
Drops below altitude 10° 20:19:32 10° 339° (NNW) 2,514 6.9 -7.4°
Sets 20:21:57 0° 343° (NNW) 3,445 7.6 -7.7°
